SCP
0 0 0 0 0 0 0 0 0 0 0 0 0 0 0 0 0 0 0 0 0 0 0 0 0 0 0 0 0 0 0 0 0 0 0 0 0 0 0 0 0 0 0 0
0 0 0 0 0 0 0 0 0 0 0 0 0 0 0 0 0 0 0 0 0 0 0 0 0 0 0 0 0 0 0 0 0 0 0 0 0 0 0 0 0 0 0 0
0 0 0 0 0 0 0 0 0 0 0 0 0 0 0 0 0 0 0 0 0 0 0 0 0 0 0 0 0 0 0 0 0 0 0 0 0 0 0 0 0 0 0 0
0 0 0 0 0 0 0 0 0 0 0 0 0 0 0 0 0 0 0 0 0 0 0 0 0 0 0 0 0 0 0 0 0 0 0 0 0 0 0 0 0 0 0 0
0 0 0 0 0 0 0 0 0 0 0 0 0 0 0 0 0 0 0 0 0 0 0 0 0 0 0 0 0 0 0 0 0 0 0 0 0 0 0 0 0 0 0 0
0 0 0 0 0 0 0 0 0 0 0 0 0 0 0 0 0 0 0 0 0 0 0 0 0 0 0 0 0 0 0 0 0 0 0 0 0 0 0 0 0 0 0 0
0 0 0 0 0 0 0 0 0 0 0 0 0 0 0 0 0 0 0 0 0 0 0 0 0 0 0 0 0 0 0 0 0 0 0 0 0 0 0 0 0 0 0 0
0 0 0 0 0 0 0 0 0 0 0 0 0 0 0 0 0 0 0 0 0 0 0 0 0 0 0 0 0 0 0 0 0 0 0 0 0 0 0 0 0 0 0 0
0 0 0 0 0 0 0 0 0 0 0 0 0 0 0 0 0 0 0 0 0 -0 0 0 0 0 0 0 0 0 0 0 0 0 0 0 0 0 0 0 0 0 0 0
0 0 0 0 0 0 0 0 0 0 0 0 0 0 0 0 0 0 0 0 0 -0 -0 0 0 -0 -0 0 0 0 0 0 0 0 0 0 0 0 0 0 0 0 0 0
0 0 0 0 0 0 0 0 0 0 0 0 0 0 0 0 0 0 0 -0 -0 -0 0 -0 -0 -0 0 0 0 0 0 0 0 0 0 0 0 0 0 0 0 0 0 0
0 0 0 0 0 0 0 0 0 0 0 0 0 0 0 0 0 0 -0 -0 -0 -0 -0 0 0 0 0 0 -0 0 0 0 0 0 0 0 0 0 -0 0 0 0 0 0
0 0 0 0 0 0 0 0 0 0 0 0 0 0 0 0 0 0 -0 -0 -0 -0 0 0 0 0 0 0 0 0 0 0 0 0 -0 -0 -0 -0 0 0 0 0 0 0
0 0 0 0 0 0 0 0 0 0 0 0 0 0 0 0 0 -0 -0 -0 -0 -0 0 0 0 0 0 0 0 0 0 0 0 -0 -0 0 0 0 0 0 0 0 0 0
0 0 0 0 0 0 0 0 0 0 0 0 0 0 0 0 0 -0 -0 -0 0 0 0 0 0 0 0 0 0 0 0 0 0 -0 -0 0 0 0 0 0 0 0 0 0
0 0 0 0 0 0 0 0 0 0 0 0 0 0 0 0 0 0 0 0 0 0 0 0 0 0 0 0 0 0 0 0 0 0 -0 -0 0 0 0 0 0 0 0 0
0 0 0 0 0 0 0 0 0 0 0 0 0 0 0 0 0 0 0 0 0 0 0 0 0 0 0 0 0 0 0 0 0 0 -0 0 0 0 0 0 0 0 0 0
0 0 0 0 0 0 0 0 0 0 0 0 0 0 0 0 0 0 0 0 0 0 0 0 0 0 0 0 0 0 0 0 0 0 0 0 0 0 0 0 0 0 0 0
0 0 0 0 0 0 0 0 0 0 0 0 0 0 0 0 0 0 0 0 -0 -0 -0 -0 -0 0 0 0 0 0 0 0 0 0 0 0 0 0 0 0 0 0 0 0
0 0 0 0 0 0 0 0 0 0 0 0 0 0 0 0 0 0 0 -0 -0 -0 -0 -0 -0 -0 0 0 0 0 0 0 0 0 0 0 0 0 0 0 0 0 0 0
0 0 0 0 0 0 0 0 0 0 0 0 0 0 0 0 0 0 0 0 0 0 0 0 0 0 0 0 0 0 0 0 0 0 0 0 0 0 0 0 0 0 0 0
0 0 0 0 0 0 0 0 0 0 0 0 0 0 0 0 0 0 0 0 0 0 0 0 0 0 0 0 0 0 0 0 0 0 0 0 0 0 0 0 0 0 0 0
0 0 0 0 0 0 0 0 0 0 0 0 0 0 0 0 0 0 0 0 0 0 0 0 0 0 0 0 0 0 0 0 0 0 0 0 0 0 0 0 0 0 0 0
0 0 0 0 0 0 0 0 0 0 0 0 0 0 0 0 0 0 0 0 0 0 0 0 0 0 0 0 0 0 0 0 0 0 0 0 0 0 0 0 0 0 0 0
0 0 0 0 0 0 0 0 0 0 0 0 0 0 0 0 0 0 0 0 0 0 0 0 0 0 0 0 0 0 0 0 0 0 0 0 0 0 0 0 0 0 0 0
0 0 0 0 0 0 0 0 0 0 0 0 0 0 0 0 0 0 0 0 0 0 0 0 0 0 0 0 0 0 0 0 0 0 0 0 0 0 0 0 0 0 0 0
Wind_Speed_500mb
10 7 13 17 16 2 6 5 9 9 5 10 11 18 27 41 36 20 15 17 28 34 35 33 32 31 32 35 37 37 35 36 34 32 31 30 30 32 36 38 35 30 28 27
7 12 10 11 9 6 4 2 10 11 6 6 12 30 33 13 16 27 31 28 22 20 22 22 21 22 26 30 34 33 33 34 31 30 30 32 35 36 35 28 26 26 26 31
12 2 11 6 3 5 3 7 4 7 13 4 14 15 11 9 24 33 31 26 22 14 6 8 15 19 19 20 23 28 29 29 30 33 33 36 37 36 31 28 26 27 30 30
9 10 9 7 5 9 4 3 2 4 9 4 8 10 10 7 11 12 18 18 15 10 6 2 4 9 14 22 26 29 32 32 34 37 37 38 35 31 28 27 25 25 25 27
9 9 8 6 4 6 6 3 3 4 6 9 6 6 12 7 4 4 8 12 12 13 16 18 21 24 27 29 31 34 36 36 37 36 35 32 30 29 26 26 26 25 25 26
6 4 6 5 7 6 4 5 5 4 4 3 10 9 8 4 8 1 4 8 18 15 16 18 21 22 26 29 31 33 34 33 33 31 30 29 28 26 24 24 26 24 24 23
6 5 4 5 8 2 10 8 5 6 2 10 8 3 12 7 7 6 6 21 16 16 18 21 24 29 30 31 29 29 29 28 29 28 26 26 28 26 24 27 26 24 22 21
11 7 5 3 4 11 5 10 9 12 4 8 4 10 10 9 7 4 12 17 17 21 23 23 24 25 27 30 31 31 30 27 26 24 23 26 27 28 31 29 27 25 24 23
9 4 5 10 5 3 5 4 6 8 6 5 6 6 6 4 9 12 16 19 26 29 30 28 26 26 24 23 25 25 24 23 24 24 27 29 28 29 27 23 22 23 23 23
5 9 4 5 5 8 4 5 8 5 2 7 9 7 10 8 7 10 16 29 36 34 28 22 24 26 24 22 22 23 23 22 24 25 26 25 24 21 18 18 19 21 22 25
7 8 5 6 9 12 4 2 1 5 6 9 3 11 7 15 12 11 16 21 31 37 31 22 20 25 24 22 23 20 21 21 22 22 21 19 16 15 15 17 19 20 20 24
5 9 6 6 1 5 5 10 10 8 10 4 6 12 9 13 10 13 13 19 29 33 34 28 23 22 21 18 17 15 17 18 18 16 14 13 15 16 16 17 17 15 18 23
8 5 8 2 3 2 6 9 6 6 4 10 10 10 4 6 9 10 17 22 26 29 31 29 24 21 18 16 15 14 14 13 14 13 12 12 15 16 17 16 13 11 14 18
7 5 9 11 9 9 11 20 20 10 5 7 13 10 8 8 10 21 20 20 19 25 32 32 32 31 24 18 16 16 16 14 13 11 12 14 14 16 15 12 11 11 13 13
7 9 4 6 10 4 12 13 22 33 23 13 9 12 11 12 9 11 19 20 17 26 37 33 33 33 28 23 18 18 16 16 15 13 12 15 17 14 12 10 9 9 10 11
3 5 6 7 5 9 10 19 20 32 27 23 27 44 15 7 5 17 32 25 24 23 45 39 33 31 31 28 24 20 17 17 17 14 12 12 14 13 11 8 6 7 8 10
10 9 5 8 3 1 12 18 24 10 7 20 25 19 3 6 13 29 44 31 13 29 46 45 40 35 33 32 31 24 22 22 20 18 16 17 17 14 12 12 11 12 16 17
11 8 6 6 5 2 12 4 7 14 10 10 3 8 10 4 25 24 14 13 24 42 45 42 41 38 33 33 31 29 28 28 27 25 24 24 25 22 21 21 20 20 22 22
7 8 2 7 5 11 2 8 11 12 11 12 15 5 8 18 25 10 4 28 45 39 38 39 40 40 36 35 35 32 27 30 34 30 32 32 35 34 32 32 30 30 33 32
3 7 6 4 7 11 12 7 13 7 7 6 13 6 1 12 5 6 19 48 39 35 36 41 39 40 37 34 36 37 34 32 33 34 39 40 43 47 46 42 41 40 41 38
7 4 9 7 5 14 10 10 14 9 10 12 5 1 5 5 12 35 43 35 29 33 38 37 37 37 36 36 36 36 35 34 37 40 41 45 48 51 52 51 50 49 47 48
11 11 7 6 5 16 18 12 12 7 9 6 4 6 11 18 22 23 27 28 30 32 35 35 37 34 32 32 35 36 36 38 40 43 47 46 48 52 57 57 57 56 56 56
4 11 8 14 10 6 41 3 16 9 8 8 4 4 10 11 14 19 24 26 29 33 35 35 37 36 32 31 35 39 39 40 40 40 43 45 46 49 53 61 62 61 62 64
7 10 4 4 5 8 32 13 10 7 6 7 3 1 5 9 13 18 22 25 30 34 37 38 39 39 36 33 36 39 41 42 42 42 40 40 42 41 43 50 58 64 66 67
8 13 9 7 3 5 21 22 18 13 11 8 4 4 6 9 13 20 23 27 31 34 35 36 40 41 40 39 39 39 40 43 44 41 40 39 39 39 38 39 44 51 57 62
15 12 9 10 17 12 11 41 27 19 13 9 8 6 6 11 17 21 24 28 31 34 37 37 38 40 40 41 41 40 40 41 43 44 42 39 36 35 35 37 40 35 39 40
Wind_Direction_500mb
193 117 210 209 211 165 141 173 238 272 338 338 255 286 284 283 291 317 42 87 109 117 142 161 179 197 214 235 247 254 260 264 267 275 282 288 289 291 294 297 297 295 295 298
63 220 204 151 129 131 97 301 276 282 67 359 297 294 293 347 73 83 78 79 89 116 151 162 183 209 228 243 251 256 258 265 274 278 284 287 291 293 294 290 286 293 299 304
162 174 142 140 165 161 205 205 264 241 335 309 325 310 349 48 82 82 72 77 73 71 114 197 219 231 237 240 249 256 263 271 277 279 283 286 289 291 288 283 285 287 289 293
229 180 173 174 197 126 195 123 98 20 49 258 52 282 335 62 69 70 76 66 65 62 50 8 268 260 258 262 266 272 275 276 276 280 284 287 288 284 281 286 287 287 292 294
225 154 133 132 150 102 193 115 134 96 69 48 318 81 272 183 59 46 84 67 26 343 315 299 294 291 287 281 276 274 273 274 277 281 284 283 280 279 284 284 287 289 286 288
111 83 83 128 104 105 120 71 73 73 78 322 241 149 264 253 204 111 117 343 331 327 318 309 298 292 287 283 276 273 274 277 281 281 280 278 278 280 280 285 284 284 283 282
121 128 86 85 107 173 69 72 1 334 351 221 256 118 252 229 222 186 287 329 336 321 315 304 295 292 289 287 285 284 281 281 281 280 280 282 282 282 291 286 284 285 278 275
153 267 137 38 144 175 155 141 156 215 240 257 323 240 262 218 278 314 340 340 341 330 317 313 306 301 290 281 277 278 281 284 284 286 287 282 284 291 287 284 285 285 282 284
128 127 91 62 31 53 182 157 143 95 32 44 231 281 350 135 346 356 345 339 338 331 326 316 313 311 303 289 282 281 280 285 285 287 284 284 289 289 288 291 288 289 290 297
173 103 155 129 61 36 118 160 65 7 178 267 288 265 226 198 284 313 331 345 342 340 329 314 310 314 312 303 292 287 290 290 287 287 284 287 294 299 303 302 301 301 304 301
122 93 138 101 201 172 146 67 143 126 168 165 259 264 220 168 209 247 299 343 354 1 354 334 323 321 320 309 297 292 296 297 285 281 293 303 303 305 316 311 307 305 307 308
158 134 145 200 55 306 183 191 151 140 245 207 152 271 201 178 204 239 313 4 13 13 10 360 350 337 329 316 304 301 288 275 282 303 323 314 315 329 322 322 313 316 320 316
179 152 130 146 91 18 227 193 177 144 102 205 147 258 299 255 302 323 351 11 15 12 13 11 3 353 348 337 320 299 286 290 303 333 334 330 345 340 336 337 343 338 328 327
111 112 162 181 187 141 194 208 204 154 144 199 226 255 291 262 309 328 350 2 4 9 9 3 2 358 349 342 329 312 303 310 322 326 336 341 333 332 334 346 355 349 339 346
104 174 107 263 239 234 198 191 200 210 213 193 240 214 251 240 241 315 335 336 330 358 359 2 354 352 350 337 324 310 306 310 322 317 343 334 314 315 329 344 359 354 349 354
82 148 93 305 345 185 246 229 212 222 236 253 270 281 214 264 316 325 331 326 322 330 346 350 344 344 344 338 319 308 300 301 305 313 320 310 306 308 319 333 345 350 333 335
147 130 99 268 229 112 304 227 190 193 233 214 242 247 233 306 322 332 320 311 320 332 341 342 338 335 333 333 328 306 292 286 288 289 288 291 295 299 298 301 303 303 305 306
142 120 114 228 36 339 242 234 174 196 222 220 284 247 208 223 325 332 67 59 347 334 338 337 332 327 326 322 319 318 292 284 280 278 279 279 279 281 281 284 289 294 294 295
138 136 151 154 216 290 310 224 165 159 276 206 215 252 237 333 327 210 172 343 337 334 332 330 326 324 322 315 309 307 308 288 282 282 277 274 274 274 274 277 280 282 285 285
214 100 134 83 147 223 242 247 192 136 305 235 152 187 322 2 348 255 315 326 325 327 327 325 323 322 318 311 304 301 300 296 295 281 271 267 266 268 271 274 276 278 280 283
148 137 201 182 221 284 236 190 157 95 234 164 148 252 261 213 237 301 309 319 329 326 325 325 324 328 326 319 313 308 303 296 287 284 278 270 265 264 266 267 268 273 274 277
158 147 192 141 188 264 146 114 165 191 132 165 214 274 287 293 304 316 324 330 335 338 338 338 341 345 339 332 323 318 313 304 297 289 287 284 277 267 264 263 263 265 269 272
233 183 185 185 215 213 182 156 160 165 164 183 217 277 310 325 336 340 339 341 347 347 346 348 349 350 350 345 337 331 327 319 314 305 296 291 284 278 269 265 263 261 262 266
261 186 210 59 261 205 179 170 178 170 165 173 191 336 352 351 346 348 350 350 350 352 351 349 350 351 351 348 341 334 330 326 322 318 315 307 298 290 280 273 271 267 265 265
200 144 197 261 289 107 207 214 198 177 157 150 127 84 31 9 3 357 357 354 352 352 352 353 351 352 349 345 342 337 333 329 327 324 320 315 309 303 296 285 279 277 273 270
189 186 181 220 209 186 202 197 184 178 165 147 132 108 52 30 20 12 6 1 355 353 353 353 353 351 350 348 345 342 339 336 333 332 332 328 319 313 307 301 293 287 289 287
Wind_Speed_850mb
10 7 13 17 16 2 6 5 9 9 5 10 11 18 27 41 36 20 15 17 28 34 35 33 32 31 32 35 37 37 35 36 34 32 31 30 30 32 36 38 35 30 28 27
7 12 10 11 9 6 4 2 10 11 6 6 12 30 33 13 16 27 31 28 22 20 22 22 21 22 26 30 34 33 33 34 31 30 30 32 35 36 35 28 26 26 26 31
12 2 11 6 3 5 3 7 4 7 13 4 14 15 11 9 24 33 31 26 22 14 6 8 15 19 19 20 23 28 29 29 30 33 33 36 37 36 31 28 26 27 30 30
9 10 9 7 5 9 4 3 2 4 9 4 8 10 10 7 11 12 18 18 15 10 6 2 4 9 14 22 26 29 32 32 34 37 37 38 35 31 28 27 25 25 25 27
9 9 8 6 4 6 6 3 3 4 6 9 6 6 12 7 4 4 8 12 12 13 16 18 21 24 27 29 31 34 36 36 37 36 35 32 30 29 26 26 26 25 25 26
6 4 6 5 7 6 4 5 5 4 4 3 10 9 8 4 8 1 4 8 18 15 16 18 21 22 26 29 31 33 34 33 33 31 30 29 28 26 24 24 26 24 24 23
6 5 4 5 8 2 10 8 5 6 2 10 8 3 12 7 7 6 6 21 16 16 18 21 24 29 30 31 29 29 29 28 29 28 26 26 28 26 24 27 26 24 22 21
11 7 5 3 4 11 5 10 9 12 4 8 4 10 10 9 7 4 12 17 17 21 23 23 24 25 27 30 31 31 30 27 26 24 23 26 27 28 31 29 27 25 24 23
9 4 5 10 5 3 5 4 6 8 6 5 6 6 6 4 9 12 16 19 26 29 30 28 26 26 24 23 25 25 24 23 24 24 27 29 28 29 27 23 22 23 23 23
5 9 4 5 5 8 4 5 8 5 2 7 9 7 10 8 7 10 16 29 36 34 28 22 24 26 24 22 22 23 23 22 24 25 26 25 24 21 18 18 19 21 22 25
7 8 5 6 9 12 4 2 1 5 6 9 3 11 7 15 12 11 16 21 31 37 31 22 20 25 24 22 23 20 21 21 22 22 21 19 16 15 15 17 19 20 20 24
5 9 6 6 1 5 5 10 10 8 10 4 6 12 9 13 10 13 13 19 29 33 34 28 23 22 21 18 17 15 17 18 18 16 14 13 15 16 16 17 17 15 18 23
8 5 8 2 3 2 6 9 6 6 4 10 10 10 4 6 9 10 17 22 26 29 31 29 24 21 18 16 15 14 14 13 14 13 12 12 15 16 17 16 13 11 14 18
7 5 9 11 9 9 11 20 20 10 5 7 13 10 8 8 10 21 20 20 19 25 32 32 32 31 24 18 16 16 16 14 13 11 12 14 14 16 15 12 11 11 13 13
7 9 4 6 10 4 12 13 22 33 23 13 9 12 11 12 9 11 19 20 17 26 37 33 33 33 28 23 18 18 16 16 15 13 12 15 17 14 12 10 9 9 10 11
3 5 6 7 5 9 10 19 20 32 27 23 27 44 15 7 5 17 32 25 24 23 45 39 33 31 31 28 24 20 17 17 17 14 12 12 14 13 11 8 6 7 8 10
10 9 5 8 3 1 12 18 24 10 7 20 25 19 3 6 13 29 44 31 13 29 46 45 40 35 33 32 31 24 22 22 20 18 16 17 17 14 12 12 11 12 16 17
11 8 6 6 5 2 12 4 7 14 10 10 3 8 10 4 25 24 14 13 24 42 45 42 41 38 33 33 31 29 28 28 27 25 24 24 25 22 21 21 20 20 22 22
7 8 2 7 5 11 2 8 11 12 11 12 15 5 8 18 25 10 4 28 45 39 38 39 40 40 36 35 35 32 27 30 34 30 32 32 35 34 32 32 30 30 33 32
3 7 6 4 7 11 12 7 13 7 7 6 13 6 1 12 5 6 19 48 39 35 36 41 39 40 37 34 36 37 34 32 33 34 39 40 43 47 46 42 41 40 41 38
7 4 9 7 5 14 10 10 14 9 10 12 5 1 5 5 12 35 43 35 29 33 38 37 37 37 36 36 36 36 35 34 37 40 41 45 48 51 52 51 50 49 47 48
11 11 7 6 5 16 18 12 12 7 9 6 4 6 11 18 22 23 27 28 30 32 35 35 37 34 32 32 35 36 36 38 40 43 47 46 48 52 57 57 57 56 56 56
4 11 8 14 10 6 41 3 16 9 8 8 4 4 10 11 14 19 24 26 29 33 35 35 37 36 32 31 35 39 39 40 40 40 43 45 46 49 53 61 62 61 62 64
7 10 4 4 5 8 32 13 10 7 6 7 3 1 5 9 13 18 22 25 30 34 37 38 39 39 36 33 36 39 41 42 42 42 40 40 42 41 43 50 58 64 66 67
8 13 9 7 3 5 21 22 18 13 11 8 4 4 6 9 13 20 23 27 31 34 35 36 40 41 40 39 39 39 40 43 44 41 40 39 39 39 38 39 44 51 57 62
15 12 9 10 17 12 11 41 27 19 13 9 8 6 6 11 17 21 24 28 31 34 37 37 38 40 40 41 41 40 40 41 43 44 42 39 36 35 35 37 40 35 39 40
Wind_Direction_850mb
193 117 210 209 211 165 141 173 238 272 338 338 255 286 284 283 291 317 42 87 109 117 142 161 179 197 214 235 247 254 260 264 267 275 282 288 289 291 294 297 297 295 295 298
63 220 204 151 129 131 97 301 276 282 67 359 297 294 293 347 73 83 78 79 89 116 151 162 183 209 228 243 251 256 258 265 274 278 284 287 291 293 294 290 286 293 299 304
162 174 142 140 165 161 205 205 264 241 335 309 325 310 349 48 82 82 72 77 73 71 114 197 219 231 237 240 249 256 263 271 277 279 283 286 289 291 288 283 285 287 289 293
229 180 173 174 197 126 195 123 98 20 49 258 52 282 335 62 69 70 76 66 65 62 50 8 268 260 258 262 266 272 275 276 276 280 284 287 288 284 281 286 287 287 292 294
225 154 133 132 150 102 193 115 134 96 69 48 318 81 272 183 59 46 84 67 26 343 315 299 294 291 287 281 276 274 273 274 277 281 284 283 280 279 284 284 287 289 286 288
111 83 83 128 104 105 120 71 73 73 78 322 241 149 264 253 204 111 117 343 331 327 318 309 298 292 287 283 276 273 274 277 281 281 280 278 278 280 280 285 284 284 283 282
121 128 86 85 107 173 69 72 1 334 351 221 256 118 252 229 222 186 287 329 336 321 315 304 295 292 289 287 285 284 281 281 281 280 280 282 282 282 291 286 284 285 278 275
153 267 137 38 144 175 155 141 156 215 240 257 323 240 262 218 278 314 340 340 341 330 317 313 306 301 290 281 277 278 281 284 284 286 287 282 284 291 287 284 285 285 282 284
128 127 91 62 31 53 182 157 143 95 32 44 231 281 350 135 346 356 345 339 338 331 326 316 313 311 303 289 282 281 280 285 285 287 284 284 289 289 288 291 288 289 290 297
173 103 155 129 61 36 118 160 65 7 178 267 288 265 226 198 284 313 331 345 342 340 329 314 310 314 312 303 292 287 290 290 287 287 284 287 294 299 303 302 301 301 304 301
122 93 138 101 201 172 146 67 143 126 168 165 259 264 220 168 209 247 299 343 354 1 354 334 323 321 320 309 297 292 296 297 285 281 293 303 303 305 316 311 307 305 307 308
158 134 145 200 55 306 183 191 151 140 245 207 152 271 201 178 204 239 313 4 13 13 10 360 350 337 329 316 304 301 288 275 282 303 323 314 315 329 322 322 313 316 320 316
179 152 130 146 91 18 227 193 177 144 102 205 147 258 299 255 302 323 351 11 15 12 13 11 3 353 348 337 320 299 286 290 303 333 334 330 345 340 336 337 343 338 328 327
111 112 162 181 187 141 194 208 204 154 144 199 226 255 291 262 309 328 350 2 4 9 9 3 2 358 349 342 329 312 303 310 322 326 336 341 333 332 334 346 355 349 339 346
104 174 107 263 239 234 198 191 200 210 213 193 240 214 251 240 241 315 335 336 330 358 359 2 354 352 350 337 324 310 306 310 322 317 343 334 314 315 329 344 359 354 349 354
82 148 93 305 345 185 246 229 212 222 236 253 270 281 214 264 316 325 331 326 322 330 346 350 344 344 344 338 319 308 300 301 305 313 320 310 306 308 319 333 345 350 333 335
147 130 99 268 229 112 304 227 190 193 233 214 242 247 233 306 322 332 320 311 320 332 341 342 338 335 333 333 328 306 292 286 288 289 288 291 295 299 298 301 303 303 305 306
142 120 114 228 36 339 242 234 174 196 222 220 284 247 208 223 325 332 67 59 347 334 338 337 332 327 326 322 319 318 292 284 280 278 279 279 279 281 281 284 289 294 294 295
138 136 151 154 216 290 310 224 165 159 276 206 215 252 237 333 327 210 172 343 337 334 332 330 326 324 322 315 309 307 308 288 282 282 277 274 274 274 274 277 280 282 285 285
214 100 134 83 147 223 242 247 192 136 305 235 152 187 322 2 348 255 315 326 325 327 327 325 323 322 318 311 304 301 300 296 295 281 271 267 266 268 271 274 276 278 280 283
148 137 201 182 221 284 236 190 157 95 234 164 148 252 261 213 237 301 309 319 329 326 325 325 324 328 326 319 313 308 303 296 287 284 278 270 265 264 266 267 268 273 274 277
158 147 192 141 188 264 146 114 165 191 132 165 214 274 287 293 304 316 324 330 335 338 338 338 341 345 339 332 323 318 313 304 297 289 287 284 277 267 264 263 263 265 269 272
233 183 185 185 215 213 182 156 160 165 164 183 217 277 310 325 336 340 339 341 347 347 346 348 349 350 350 345 337 331 327 319 314 305 296 291 284 278 269 265 263 261 262 266
261 186 210 59 261 205 179 170 178 170 165 173 191 336 352 351 346 348 350 350 350 352 351 349 350 351 351 348 341 334 330 326 322 318 315 307 298 290 280 273 271 267 265 265
200 144 197 261 289 107 207 214 198 177 157 150 127 84 31 9 3 357 357 354 352 352 352 353 351 352 349 345 342 337 333 329 327 324 320 315 309 303 296 285 279 277 273 270
189 186 181 220 209 186 202 197 184 178 165 147 132 108 52 30 20 12 6 1 355 353 353 353 353 351 350 348 345 342 339 336 333 332 332 328 319 313 307 301 293 287 289 287